Weather History for Wautoma, WI

Change the Weather History Date:

Wednesday, November 6, 2013

  Actual Average (KPCZ) Record (KPCZ)
Temperature  
Mean Temperature 41 °F -  
Max Temperature 52 °F 45 °F 68 °F (1975)
Min Temperature 28 °F 28 °F -6 °F (1951)
Degree Days  
Heating Degree Days 24    
Moisture  
Dew Point 38 °F    
Average Humidity 100    
Maximum Humidity 100    
Minimum Humidity 100    
Precipitation  
Precipitation 0.10 in - - ()
Sea Level Pressure  
Sea Level Pressure 29.85 in    
Wind  
Wind Speed 7 mph (NNW)    
Max Wind Speed 15 mph    
Max Gust Speed 23 mph    
Visibility 5 miles    
Events Rain    
Averages and records for this station are not official NWS values.
T = Trace of Precipitation, MM = Missing Value Source: NWS Daily Summary

Daily Weather History Graph

Daily Weather History Graph

Search for Another Location

Airport:

Trip Planner

Search our weather history database for the weather conditions in past years. The results will help you decide how hot, cold, wet, or windy it might be!

Date:

Astronomy

Nov. 06, 2013 Rise Set
Actual Time 6:40 AM CST 4:40 PM CST
Civil Twilight 6:10 AM CST 5:10 PM CST
Nautical Twilight 5:35 AM CST 5:45 PM CST
Astronomical Twilight 5:02 AM CST 6:18 PM CST
Moon 9:58 AM CST (11/6) 7:42 PM CST (11/6)
Length of Visible Light 11h 00m
Length of Day
9h 59m
Waxing Crescent, 14% of the Moon is Illuminated
Nov 6
Waxing Crescent
Nov 9
First Quarter
Nov 17
Full
Nov 25
Last Quarter
Dec 2
New

Hourly Weather History & Observations

Time (CST) Temp. Windchill Dew Point Humidity Pressure Visibility Wind Dir Wind Speed Gust Speed Precip Events Conditions
12:35 AM 51.8 °F - - N/A% 29.81 in 2.5 mi Variable 5.8 mph - 0.02 in Rain Light Rain
12:42 AM 51.8 °F - - N/A% 29.80 in 4.0 mi Variable 3.5 mph - 0.02 in Rain Light Rain
12:56 AM 52.0 °F - - N/A% 29.80 in 4.0 mi Calm Calm - 0.02 in Rain Light Rain
1:34 AM 51.8 °F - - N/A% 29.78 in 1.8 mi Variable 3.5 mph - 0.01 in Rain Light Rain
1:56 AM 52.0 °F - - N/A% 29.77 in 2.5 mi Calm Calm - 0.03 in Rain Light Rain
2:00 AM 51.8 °F - - N/A% 29.77 in 3.0 mi SSE 3.5 mph - 0.00 in Rain Light Rain
2:17 AM 51.8 °F - - N/A% 29.76 in 2.5 mi SSE 3.5 mph - 0.00 in Rain Light Rain
2:25 AM 51.8 °F - - N/A% 29.76 in 4.0 mi Calm Calm - 0.00 in Rain Light Rain
2:38 AM 51.8 °F - - N/A% 29.75 in 1.8 mi Calm Calm - 0.00 in Rain Light Rain
2:56 AM 51.8 °F - - N/A% 29.75 in 1.5 mi Calm Calm - N/A Rain Light Rain
3:12 AM 48.2 °F - - N/A% 29.74 in 2.0 mi NNE 4.6 mph - 0.00 in Rain Light Rain
3:27 AM 48.2 °F - - N/A% 29.74 in 3.0 mi NE 4.6 mph - 0.00 in Rain Light Rain
3:37 AM 48.2 °F - - N/A% 29.73 in 2.5 mi NE 5.8 mph - 0.02 in Rain Light Rain
3:46 AM 46.4 °F 42.9 °F - N/A% 29.71 in 3.0 mi NE 6.9 mph - 0.03 in Rain Rain
3:56 AM 45.9 °F 42.3 °F - N/A% 29.73 in 3.0 mi NNE 6.9 mph - 0.04 in Rain Light Rain
4:30 AM 44.6 °F 40.7 °F - N/A% 29.72 in 2.0 mi NNE 6.9 mph - 0.00 in Rain Light Rain
4:48 AM 44.6 °F 40.7 °F - N/A% 29.73 in 3.0 mi North 6.9 mph - 0.00 in Rain Light Rain
4:56 AM 43.9 °F 38.8 °F - N/A% 29.74 in 1.5 mi North 9.2 mph - 0.00 in Rain Light Rain
5:03 AM 42.8 °F 37.0 °F - N/A% 29.74 in 1.0 mi NNW 10.4 mph - 0.01 in Rain Rain
5:09 AM 42.8 °F 37.5 °F - N/A% 29.74 in 1.5 mi North 9.2 mph - 0.01 in Rain Light Rain
5:19 AM 42.8 °F 36.6 °F - N/A% 29.73 in 2.0 mi North 11.5 mph - 0.01 in Rain Light Rain
5:30 AM 42.8 °F 37.0 °F - N/A% 29.74 in 2.5 mi NNW 10.4 mph - 0.01 in Rain Light Rain
5:37 AM 42.8 °F 37.5 °F - N/A% 29.75 in 4.0 mi NNW 9.2 mph - 0.01 in Rain Light Rain
5:45 AM 42.8 °F 37.0 °F - N/A% 29.76 in 3.0 mi NNW 10.4 mph - 0.01 in Rain Light Rain
5:56 AM 41.0 °F 33.5 °F - N/A% 29.75 in 1.5 mi North 13.8 mph 18.4 mph N/A Rain Light Rain
6:40 AM 39.2 °F 33.0 °F - N/A% 29.76 in 2.5 mi North 9.2 mph 18.4 mph 0.00 in Rain Light Rain
6:56 AM 37.9 °F 30.9 °F - N/A% 29.77 in 2.5 mi North 10.4 mph - 0.00 in Rain Light Rain
7:07 AM 37.4 °F 29.3 °F - N/A% 29.77 in 3.0 mi North 12.7 mph - 0.00 in Rain Light Rain
7:17 AM 37.4 °F 29.8 °F - N/A% 29.78 in 2.5 mi NNW 11.5 mph - 0.00 in Rain Light Rain
7:44 AM 37.4 °F 30.3 °F - N/A% 29.79 in 1.2 mi North 10.4 mph - 0.01 in Rain Rain
7:56 AM 37.9 °F 30.0 °F - N/A% 29.81 in 1.8 mi North 12.7 mph - 0.01 in Rain Light Rain
7:58 AM 37.4 °F 30.8 °F - N/A% 29.81 in 2.0 mi NNW 9.2 mph - 0.00 in Rain Light Rain
8:08 AM 37.4 °F 30.3 °F - N/A% 29.83 in 5.0 mi NNW 10.4 mph - 0.00 in Rain Light Rain
8:21 AM 37.4 °F 29.8 °F - N/A% 29.84 in 2.0 mi NNW 11.5 mph - 0.02 in Rain Rain
8:42 AM 37.4 °F 29.3 °F - N/A% 29.83 in 2.5 mi North 12.7 mph 18.4 mph 0.02 in Rain Light Rain
8:49 AM 37.4 °F 29.8 °F - N/A% 29.85 in 7.0 mi NNW 11.5 mph 18.4 mph 0.02 in Rain Light Rain
8:56 AM 37.4 °F 30.8 °F 37.4 °F 100% 29.86 in 10.0 mi NNW 9.2 mph 17.3 mph N/A   Overcast
9:17 AM 37.4 °F 30.8 °F 37.4 °F 100% 29.86 in 2.0 mi NNW 9.2 mph - 0.00 in Rain Light Rain
9:26 AM 37.4 °F 29.8 °F 37.4 °F 100% 29.87 in 10.0 mi NNW 11.5 mph 18.4 mph 0.00 in   Overcast
9:56 AM 37.9 °F 30.0 °F 37.9 °F 100% 29.88 in 10.0 mi NNW 12.7 mph - 0.00 in   Overcast
10:56 AM 38.8 °F 31.2 °F - N/A% 29.89 in 10.0 mi NNW 12.7 mph - N/A   Overcast
11:56 AM 39.2 °F 32.0 °F - N/A% 29.90 in 10.0 mi NNW 11.5 mph 21.9 mph N/A   Overcast
12:56 PM 41.0 °F 33.1 °F - N/A% 29.92 in 10.0 mi NW 15.0 mph 23.0 mph N/A   Overcast
1:31 PM 42.8 °F 35.4 °F - N/A% 29.93 in 10.0 mi NW 15.0 mph 23.0 mph N/A   Mostly Cloudy
1:56 PM 41.9 °F 35.9 °F - N/A% 29.94 in 10.0 mi NW 10.4 mph 19.6 mph N/A   Mostly Cloudy
2:04 PM 42.8 °F 37.0 °F - N/A% 29.94 in 10.0 mi NW 10.4 mph - N/A   Overcast
2:56 PM 42.8 °F 37.5 °F - N/A% 29.97 in 10.0 mi NW 9.2 mph - N/A   Mostly Cloudy
3:56 PM 41.0 °F 33.9 °F - N/A% 30.00 in 10.0 mi WNW 12.7 mph - N/A   Clear
4:56 PM 37.9 °F 32.1 °F - N/A% 30.04 in 10.0 mi WNW 8.1 mph - N/A   Clear
5:56 PM 36.0 °F 29.0 °F - N/A% 30.07 in 10.0 mi NW 9.2 mph - N/A   Clear
6:56 PM 34.0 °F 27.2 °F - N/A% 30.10 in 10.0 mi NW 8.1 mph - N/A   Clear
7:56 PM 32.0 °F 27.5 °F - N/A% 30.12 in 10.0 mi WNW 4.6 mph - N/A   Clear
8:56 PM 30.0 °F 24.1 °F - N/A% 30.13 in 10.0 mi West 5.8 mph - N/A   Clear
9:56 PM 31.1 °F 25.4 °F - N/A% 30.14 in 10.0 mi West 5.8 mph - N/A   Clear
10:56 PM 31.1 °F 24.5 °F - N/A% 30.15 in 10.0 mi WNW 6.9 mph - N/A   Clear
11:56 PM 28.0 °F 21.7 °F - N/A% 30.16 in 10.0 mi West 5.8 mph - N/A   Clear